THOR ABLESTAR DEB, 48827

Orbit data source: Space-Track

THOR ABLESTAR DEB, 48827 is space debris in LEO originally from a launch on Thu, 29 Jun 1961 UTC launched from the Air Force Eastern Test Range (AFETR). Debris objects in space refer to the collection of defunct objects orbiting the Earth. Examples of debris include non-operational satellites, rocket bodies, and fragments generated from explosions, collisions, or faulty payload assembly.

Loading next visibility...
Identifier
48827, 1961-015NF
Orbit
LEO
Country
Flag of USUS
Related business
Manufacturer
Unknown
Mission
Spacecraft
Bus & Motor
Unknown
Mass
Unknown
Launch date (UTC)
1961-06-29 (64 years ago)
Launch vehicle
Unknown
Launch site
Air Force Eastern Test Range (AFETR)
Object type
Payload
Rocket body
Debris
Shape & HBR
Unknown shape, 0.1 m
Radar Cross Section
Small (<0.1 m²)

Expand to show TLE details & history
Last TLE update: 2 days ago

TLE from 2 days ago
0 THOR ABLESTAR DEB
1 48827U 61015NF  25345.34763208  .00000341  00000-0  60172-3 0  9991
2 48827  68.1610 237.6673 0345457 298.0899  58.5635 13.31245176584855
Epoch: 2025-12-11T08:20Z
TLE epoch observation values (Epoch: 2025-12-11T08:20:35.411Z)
Latitude
-0.00004°
Longitude
32.21483°
Altitude
1,015.393 km
Speed
7.407 km/s
True Right ascension
15h 50m 40s
True Declination
0° 00' 00"
Sunlit
Object was in daylight at epoch
Visualization orbit readout
Latitude
Unknown
Longitude
Unknown
Altitude
Unknown
Speed
Unknown
Apparent Right ascension
Unknown
Apparent Declination
Unknown
Sunlit
N/A
Visualization observer readout
Local Sidereal Time
05:06:44
Azimuth
Unknown
Elevation
Unknown
Doppler factor
Unknown
Orbital elements
Apogee altitude
1,400.091 km
Perigee altitude
880.628 km
Semi-major axis
7,518.497 km
Eccentricity
0.03455
Inclination
68.161°
RAAN
237.6673°
Arg. of periapsis
298.0899°
True anomaly
62.01674°
Mean anomaly
58.5635°
Eccentric anomaly
60.2825°
Mean motion
3.32925 °/min
Orbital period
108.13 mins
BSTAR
0.00060172
Loading maneuver chart data...
Computing Atmospheric mass density...
Loading historical data...
Loading historical data...
Loading historical data...
Loading historical data...
Loading historical data...
Loading historical data...
Loading historical data...

Documentation

Showing up to 5 results
|